[[{"header":{"parameterUnit":"m.s-1","parameterCategory":2,"la1":30.2991,"la2":30.254,"lo1":-89.0895,"lo2":-89.0444,"dy":0.0017,"dx":0.0017,"nx":28,"ny":28,"refTime":"2025-02-12T09:00:00:Z","depth":"0","parameterNumber":2,"parameterNumberName":"U-component_of_CURRENTS"},"data":[0,0,0,0,0,0,0,0,0,0,0,0,0,0,0,0,0,0,0,0,0,0,0,0,0,0,0,0,0,0,0,0,0,0,0,0,0,0,0,0,0,0,0,0,0,0,0,0,0,0,0,0,0,0,0,0,0,0,-0.2052,-0.2052,0,-0.2076,-0.2076,-0.2076,-0.207,-0.207,-0.207,-0.2069,-0.2087,-0.2087,-0.2088,0,0,0,0,0,0,0,0,0,0,0,0,0,-0.1996,-0.1997,-0.2052,-0.2052,-0.2053,-0.2076,-0.2076,-0.2076,-0.207,-0.207,-0.2069,-0.2069,-0.2086,-0.2087,-0.2088,0,0,0,0,0,0,0,0,0,0,0,0,0,-0.2019,-0.1997,-0.2052,-0.2054,-0.2054,-0.2076,-0.2076,-0.2076,-0.207,-0.207,-0.2069,-0.2069,-0.2086,-0.2087,-0.2088,-0.2105,0,0,-0.2092,-0.2092,0,0,0,0,0,0,0,0,-0.2017,-0.202,-0.2053,-0.2054,-0.2054,-0.2071,-0.2063,-0.2086,-0.207,-0.2063,-0.2069,-0.2069,-0.2082,-0.2084,-0.2087,-0.2106,-0.2107,-0.2092,-0.2093,-0.2093,-0.2093,0,0,0,0,0,0,0,-0.2016,-0.2019,-0.206,-0.2053,-0.2054,-0.2052,-0.2054,-0.2067,-0.2073,-0.2063,-0.2063,-0.2069,-0.2082,-0.2086,-0.2087,-0.2107,-0.2092,-0.2093,-0.2094,-0.2094,-0.2141,-0.2141,0,0,0,0,0,0,-0.2017,-0.2018,-0.2059,-0.2061,-0.2036,-0.2053,-0.2056,-0.2065,-0.2073,-0.2075,-0.2069,-0.2068,-0.2084,-0.2086,-0.2088,-0.2105,-0.2093,-0.2094,-0.2095,-0.214,-0.2141,-0.2142,0,0,0,0,0,0,-0.2016,-0.2021,-0.2058,-0.2041,-0.2046,-0.2055,-0.2065,-0.2066,-0.207,-0.2078,-0.2079,-0.2072,-0.2084,-0.2086,-0.21,-0.2106,-0.2095,-0.2096,-0.214,-0.2141,-0.2141,-0.2141,0,0,0,0,0,0,-0.2014,-0.202,-0.2023,-0.2041,-0.2047,-0.2073,-0.2065,-0.2066,-0.2074,-0.2074,-0.2082,-0.2082,-0.2084,-0.2098,-0.2101,-0.2107,-0.2097,-0.2139,-0.214,-0.2141,-0.214,-0.2142,-0.2143,0,0,0,0,0,-0.2012,-0.2021,-0.2024,-0.2028,-0.2052,-0.2073,-0.2076,-0.208,-0.2075,-0.208,-0.2084,-0.2082,-0.2107,-0.2099,-0.2103,-0.2109,-0.2138,-0.214,-0.2141,-0.214,-0.2142,-0.2143,0,0,0,0,0,0,-0.1998,-0.2022,-0.2025,-0.2041,-0.2056,-0.2073,-0.2078,-0.2082,-0.2089,-0.2087,-0.209,-0.2092,-0.2107,-0.2111,-0.2103,-0.2127,-0.2122,-0.2124,-0.212,-0.2122,-0.2123,-0.2128,-0.2098,0,0,0,0,0,-0.1998,-0.2009,-0.2032,-0.2043,-0.2052,-0.2065,-0.2073,-0.2078,-0.2089,-0.2092,-0.2097,-0.2104,-0.2116,-0.212,-0.2131,-0.2145,-0.215,-0.2152,-0.2153,-0.2154,-0.2161,-0.2168,-0.2171,-0.2146,-0.2146,-0.2146,0,0,-0.1994,-0.2009,-0.2014,-0.204,-0.2051,-0.2069,-0.2068,-0.2083,-0.2096,-0.2093,-0.2107,-0.2111,-0.2122,-0.2135,-0.2142,-0.2137,-0.2165,-0.2156,-0.2156,-0.2163,-0.217,-0.2172,-0.2174,-0.2147,-0.2146,-0.2146,0,0,-0.1995,-0.2007,-0.2018,-0.2036,-0.2058,-0.207,-0.2076,-0.2096,-0.2101,-0.2118,-0.2118,-0.2126,-0.2143,-0.2149,-0.2156,-0.2174,-0.2174,-0.2176,-0.2184,-0.219,-0.2192,-0.2194,-0.2206,-0.2209,-0.2173,-0.2173,-0.2173,0,-0.1989,-0.2007,-0.2024,-0.2043,-0.2057,-0.2072,-0.2089,-0.2103,-0.2122,-0.213,-0.2122,-0.2148,-0.2151,-0.2173,-0.2174,-0.2176,-0.2181,-0.2174,-0.2191,-0.2193,-0.2195,-0.2207,-0.221,-0.2174,-0.2174,-0.2174,-0.2174,0,-0.2001,-0.2017,-0.2026,-0.2054,-0.2073,-0.209,-0.2116,-0.213,-0.2136,-0.2147,-0.2167,-0.217,-0.2185,-0.2185,-0.2183,-0.22,-0.22,-0.2192,-0.2184,-0.2197,-0.2209,-0.2212,-0.2174,-0.2174,-0.2174,-0.2174,0,0,-0.1981,-0.2025,-0.2027,-0.2041,-0.208,-0.2096,-0.2125,-0.2154,-0.2172,-0.2182,-0.2202,-0.2212,-0.221,-0.2217,-0.2215,-0.2218,-0.2228,-0.2208,-0.2208,-0.2215,-0.2247,-0.2284,-0.2291,-0.2219,-0.222,-0.222,-0.2251,0,-0.1982,-0.2012,-0.2038,-0.2067,-0.2085,-0.2115,-0.2143,-0.2171,-0.2191,-0.2213,-0.222,-0.2237,-0.2224,-0.2226,-0.2228,-0.2232,-0.2237,-0.2221,-0.2238,-0.2239,-0.2267,-0.2296,-0.2309,-0.234,-0.2254,-0.2254,-0.2255,0,-0.1982,-0.2004,-0.203,-0.2075,-0.2086,-0.2106,-0.215,-0.2177,-0.2218,-0.2233,-0.2252,-0.2262,-0.2276,-0.2256,-0.2272,-0.2261,-0.2256,-0.2254,-0.2255,-0.2294,-0.2283,-0.2314,-0.235,-0.2343,-0.226,-0.2259,-0.2259,0,-0.1952,-0.1997,-0.2014,-0.203,-0.2084,-0.21,-0.2127,-0.2175,-0.2202,-0.2242,-0.2266,-0.2285,-0.2299,-0.2295,-0.2301,-0.2282,-0.232,-0.2292,-0.2324,-0.2326,-0.2344,-0.2348,-0.2373,-0.2302,-0.2302,-0.2302,-0.2302,0,-0.1941,-0.1953,-0.1998,-0.2008,-0.2029,-0.2078,-0.2106,-0.2141,-0.2196,-0.2236,-0.2266,-0.2306,-0.2308,-0.2334,-0.232,-0.2348,-0.2337,-0.234,-0.2342,-0.2346,-0.2349,-0.235,-0.2364,-0.2303,-0.2303,-0.2303,-0.2302,0,-0.1899,-0.1932,-0.1951,-0.2,-0.2013,-0.2024,-0.2084,-0.211,-0.2173,-0.2228,-0.2243,-0.232,-0.2369,-0.2383,-0.2393,-0.2387,-0.2381,-0.2404,-0.2417,-0.242,-0.244,-0.2454,-0.2426,-0.2353,-0.2442,-0.2443,-0.2444,0,-0.1879,-0.1883,-0.1924,-0.1931,-0.1947,-0.1976,-0.2,-0.2076,-0.2116,-0.2243,-0.2269,-0.2353,-0.2426,-0.2479,-0.2491,-0.2503,-0.2433,-0.2498,-0.2465,-0.2461,-0.2478,-0.2395,-0.2327,-0.2484,-0.2486,-0.2487,-0.2488,0,-0.1827,-0.184,-0.1852,-0.1868,-0.1887,-0.1916,-0.1962,-0.2,-0.2108,-0.2194,-0.2316,-0.2395,-0.2498,-0.2571,-0.2604,-0.2575,-0.2466,-0.252,-0.2508,-0.2521,-0.244,-0.2364,-0.2443,-0.2497,-0.2496,-0.2495,-0.2495,-0.2494,-0.1773,-0.1766,-0.1781,-0.179,-0.1816,-0.1848,-0.1856,-0.196,-0.2051,-0.2219,-0.2328,-0.2531,-0.2643,-0.272,-0.2677,-0.2646,-0.2551,-0.2582,-0.2602,-0.2516,-0.2445,-0.2558,-0.2618,-0.2618,-0.2618,-0.2618,-0.2618,0,-0.1698,-0.1699,-0.1703,-0.1715,-0.1717,-0.1756,-0.182,-0.1846,-0.196,-0.2228,-0.2388,-0.2752,-0.2817,-0.2868,-0.2887,-0.2782,-0.2607,-0.2668,-0.2552,-0.2474,-0.2584,-0.2587,-0.2655,-0.2655,-0.2655,-0.2655,-0.2655,-0.2655,-0.1657,-0.1629,-0.1634,-0.1606,-0.1616,-0.1601,-0.1623,-0.1711,-0.188,-0.2242,-0.2597,-0.2887,-0.3025,-0.3177,-0.3063,-0.2898,-0.2709,-0.263,-0.2537,-0.2655,-0.2646,-0.2638,-0.2642,-0.2719,-0.272,-0.2338,-0.2336,-0.2335]},{"header":{"parameterUnit":"m.s-1","parameterCategory":2,"la1":30.2991,"la2":30.254,"lo1":-89.0895,"lo2":-89.0444,"dy":0.0017,"dx":0.0017,"nx":28,"ny":28,"refTime":"2025-02-12T09:00:00:Z","depth":"0","parameterNumber":3,"parameterNumberName":"V-component_of_CURRENTS"},"data":[0,0,0,0,0,0,0,0,0,0,0,0,0,0,0,0,0,0,0,0,0,0,0,0,0,0,0,0,0,0,0,0,0,0,0,0,0,0,0,0,0,0,0,0,0,0,0,0,0,0,0,0,0,0,0,0,0,0,-0.0416,-0.0416,0,-0.0341,-0.034,-0.0338,-0.0283,-0.0283,-0.0283,-0.0282,-0.0147,-0.0144,-0.0141,0,0,0,0,0,0,0,0,0,0,0,0,0,-0.0464,-0.0463,-0.0417,-0.0416,-0.0415,-0.0341,-0.0339,-0.0338,-0.0283,-0.0283,-0.0283,-0.0282,-0.0148,-0.0144,-0.014,0,0,0,0,0,0,0,0,0,0,0,0,0,-0.0419,-0.0463,-0.0417,-0.038,-0.0376,-0.0341,-0.0339,-0.0338,-0.0283,-0.0283,-0.0283,-0.0282,-0.015,-0.0145,-0.014,-0.0118,0,0,-0.0125,-0.0122,0,0,0,0,0,0,0,0,-0.0422,-0.0418,-0.0386,-0.0383,-0.0378,-0.0323,-0.0307,-0.0262,-0.0284,-0.0317,-0.0282,-0.0282,-0.0202,-0.0193,-0.0177,-0.0111,-0.0105,-0.0124,-0.0121,-0.0119,-0.0118,0,0,0,0,0,0,0,-0.0425,-0.042,-0.0384,-0.0385,-0.0381,-0.035,-0.0344,-0.0298,-0.026,-0.0314,-0.031,-0.0305,-0.0199,-0.0182,-0.0174,-0.0103,-0.0124,-0.012,-0.0117,-0.0115,-0.0013,-0.0014,0,0,0,0,0,0,-0.0442,-0.0423,-0.0387,-0.0382,-0.0402,-0.035,-0.0343,-0.0339,-0.0262,-0.025,-0.0305,-0.0303,-0.0191,-0.018,-0.0169,-0.0141,-0.0119,-0.0114,-0.0111,-0.0013,-0.0013,-0.0014,0,0,0,0,0,0,-0.0443,-0.0439,-0.039,-0.0402,-0.0394,-0.035,-0.0347,-0.0338,-0.0321,-0.0256,-0.0243,-0.0297,-0.019,-0.0176,-0.0133,-0.0135,-0.0112,-0.0107,-0.0013,-0.0013,-0.0013,-0.0084,0,0,0,0,0,0,-0.0445,-0.044,-0.0442,-0.0404,-0.0394,-0.0374,-0.0347,-0.0337,-0.0319,-0.0315,-0.0245,-0.0232,-0.0189,-0.0141,-0.0129,-0.0128,-0.0104,-0.0012,-0.0013,-0.0013,-0.0081,-0.0087,-0.0091,0,0,0,0,0,-0.0447,-0.0452,-0.0443,-0.0438,-0.0399,-0.0374,-0.0366,-0.0332,-0.0319,-0.0314,-0.027,-0.0234,-0.0136,-0.0138,-0.0122,-0.0121,-0.0012,-0.0013,-0.0013,-0.0079,-0.0086,-0.0091,0,0,0,0,0,0,-0.0471,-0.0446,-0.0435,-0.0432,-0.0408,-0.0366,-0.0358,-0.0337,-0.0299,-0.0294,-0.0234,-0.0218,-0.0183,-0.0144,-0.0147,-0.0094,-0.0069,-0.0067,-0.0124,-0.013,-0.0135,-0.014,-0.0099,0,0,0,0,0,-0.048,-0.0479,-0.0448,-0.0446,-0.0437,-0.04,-0.0385,-0.0364,-0.0327,-0.031,-0.0264,-0.0215,-0.0174,-0.0147,-0.0105,-0.0072,-0.0036,-0.0062,-0.0067,-0.0072,-0.0066,-0.0026,-0.0027,-0.0016,-0.0016,-0.0016,0,0,-0.0489,-0.0476,-0.0474,-0.0451,-0.043,-0.0421,-0.0389,-0.0373,-0.0362,-0.03,-0.0271,-0.023,-0.0171,-0.0138,-0.0119,-0.0104,-0.0058,-0.0073,-0.0077,-0.0069,-0.0027,-0.0028,-0.0029,-0.0016,-0.0016,-0.0016,0,0,-0.0509,-0.0496,-0.0502,-0.0486,-0.0462,-0.0438,-0.0438,-0.04,-0.0379,-0.035,-0.0306,-0.0269,-0.0204,-0.0164,-0.0135,-0.0141,-0.009,-0.013,-0.0153,-0.0115,-0.0115,-0.0115,-0.0082,-0.0079,-0.0129,-0.0129,-0.0129,0,-0.0522,-0.0525,-0.0499,-0.05,-0.0491,-0.0451,-0.0454,-0.0428,-0.0381,-0.0365,-0.0349,-0.0261,-0.0215,-0.017,-0.0174,-0.0151,-0.0124,-0.0136,-0.0122,-0.0121,-0.012,-0.0085,-0.0081,-0.0132,-0.0132,-0.0132,-0.0131,0,-0.0545,-0.0547,-0.0549,-0.0538,-0.0525,-0.0521,-0.0486,-0.0469,-0.0443,-0.0412,-0.0367,-0.0306,-0.0252,-0.0237,-0.0204,-0.0173,-0.0156,-0.0138,-0.0109,-0.0125,-0.0088,-0.0082,-0.0137,-0.0136,-0.0135,-0.0134,0,0,-0.0575,-0.0568,-0.0569,-0.0575,-0.0547,-0.054,-0.0524,-0.0497,-0.0487,-0.0437,-0.0415,-0.0349,-0.0314,-0.0279,-0.0234,-0.0198,-0.0172,-0.0169,-0.0165,-0.0141,-0.0091,-0.0058,-0.0048,-0.0154,-0.0153,-0.0153,-0.0073,0,-0.0602,-0.0621,-0.0604,-0.0617,-0.0625,-0.0588,-0.0578,-0.0547,-0.051,-0.0479,-0.0412,-0.0372,-0.033,-0.0307,-0.0265,-0.0191,-0.0157,-0.0195,-0.0074,-0.007,-0.0043,-0.004,-0.0049,0.0023,-0.0067,-0.0065,-0.0065,0,-0.063,-0.064,-0.0663,-0.0664,-0.0663,-0.0661,-0.064,-0.0624,-0.0567,-0.0538,-0.0482,-0.0426,-0.0357,-0.0328,-0.0207,-0.0234,-0.017,-0.0115,-0.011,-0.0047,-0.0025,0.0029,0.0039,0.0178,-0.0054,-0.0055,-0.0056,0,-0.0671,-0.0681,-0.0704,-0.0703,-0.0695,-0.0696,-0.0686,-0.0643,-0.0634,-0.0571,-0.0555,-0.0461,-0.0414,-0.0318,-0.02,-0.0203,-0.0071,-0.006,0.003,0.0033,0.0068,0.0073,0.0226,0.0017,0.0017,0.0017,0.0017,0,-0.0708,-0.0725,-0.0727,-0.074,-0.0766,-0.0739,-0.075,-0.0724,-0.0687,-0.0683,-0.0588,-0.0558,-0.0411,-0.0315,-0.0211,-0.0065,-0.0075,0.0034,0.006,0.0042,0.0044,0.0202,0.0281,0.002,0.0019,0.0019,0.0018,0,-0.0748,-0.0748,-0.0778,-0.0783,-0.0788,-0.0805,-0.0804,-0.0811,-0.0764,-0.0755,-0.0738,-0.0624,-0.0493,-0.0343,-0.018,-0.0079,0.0141,0.0104,0.0073,0.0095,0.031,0.0385,0.0606,0.0642,0.0221,0.0222,0.0223,0,-0.077,-0.0789,-0.0818,-0.0843,-0.0848,-0.0868,-0.0886,-0.0856,-0.0864,-0.0799,-0.0802,-0.0669,-0.0592,-0.0324,-0.0112,0.0089,0.02,0.0206,0.0203,0.0334,0.0437,0.0505,0.0522,0.0217,0.0218,0.0219,0.022,0,-0.0811,-0.0819,-0.0844,-0.0903,-0.0933,-0.0971,-0.0992,-0.1015,-0.0982,-0.0976,-0.0932,-0.0862,-0.0577,-0.034,-0.005,0.0074,0.0314,0.023,0.0376,0.0464,0.0539,0.058,0.0151,0.0227,0.0226,0.0226,0.0225,0.0225,-0.0835,-0.0867,-0.0906,-0.096,-0.1009,-0.1075,-0.1124,-0.1153,-0.1188,-0.1206,-0.1068,-0.0985,-0.0541,-0.0129,0.0033,0.0404,0.04,0.0496,0.0579,0.0639,0.0674,0.0263,0.0363,0.0363,0.0363,0.0363,0.0363,0,-0.0866,-0.0905,-0.0963,-0.1038,-0.1119,-0.1125,-0.12,-0.1268,-0.1349,-0.1334,-0.1294,-0.0884,-0.0464,-0.0037,0.0547,0.0747,0.0765,0.084,0.0928,0.0927,0.057,0.0569,0.0704,0.0703,0.0703,0.0703,0.0703,0.0703,-0.0882,-0.0943,-0.0979,-0.1119,-0.1185,-0.1306,-0.1364,-0.1464,-0.1491,-0.1484,-0.133,-0.1187,-0.0435,0.0641,0.1159,0.1165,0.1293,0.1292,0.1369,0.1126,0.1099,0.1074,0.1091,0.1334,0.1334,0.1662,0.1666,0.1669]}],[{"header":{"parameterUnit":"m.s-1","parameterCategory":2,"la1":30.2991,"la2":30.254,"lo1":-89.0895,"lo2":-89.0444,"dy":0.0017,"dx":0.0017,"nx":28,"ny":28,"refTime":"2025-02-12T09:00:00:Z","depth":"2","parameterNumber":2,"parameterNumberName":"U-component_of_CURRENTS"},"data":[0,0,0,0,0,0,0,0,0,0,0,0,0,0,0,0,0,0,0,0,0,0,0,0,0,0,0,0,0,0,0,0,0,0,0,0,0,0,0,0,0,0,0,0,0,0,0,0,0,0,0,0,0,0,0,0,0,0,-0.2003,-0.2003,0,-0.2026,-0.2026,-0.2026,-0.2021,-0.2021,-0.202,-0.202,-0.2038,-0.2039,-0.2039,0,0,0,0,0,0,0,0,0,0,0,0,0,-0.1948,-0.1949,-0.2002,-0.2003,-0.2003,-0.2026,-0.2026,-0.2026,-0.2021,-0.2021,-0.202,-0.202,-0.2038,-0.2039,-0.2039,0,0,0,0,0,0,0,0,0,0,0,0,0,-0.197,-0.1949,-0.2002,-0.2005,-0.2005,-0.2026,-0.2026,-0.2026,-0.2021,-0.2021,-0.202,-0.202,-0.2037,-0.2038,-0.204,-0.2055,0,0,-0.2043,-0.2043,0,0,0,0,0,0,0,0,-0.1969,-0.1972,-0.2004,-0.2005,-0.2005,-0.2021,-0.2013,-0.2036,-0.2021,-0.2013,-0.202,-0.202,-0.2033,-0.2035,-0.2038,-0.2056,-0.2057,-0.2043,-0.2044,-0.2044,-0.2044,0,0,0,0,0,0,0,-0.1967,-0.1971,-0.201,-0.2005,-0.2005,-0.2003,-0.2005,-0.2017,-0.2024,-0.2014,-0.2014,-0.202,-0.2033,-0.2037,-0.2038,-0.2057,-0.2043,-0.2044,-0.2045,-0.2045,-0.2091,-0.2092,0,0,0,0,0,0,-0.1969,-0.197,-0.2009,-0.2011,-0.1988,-0.2004,-0.2007,-0.2015,-0.2024,-0.2026,-0.202,-0.2019,-0.2035,-0.2037,-0.2039,-0.2057,-0.2044,-0.2045,-0.2046,-0.2091,-0.2091,-0.2092,0,0,0,0,0,0,-0.1968,-0.1972,-0.2008,-0.1992,-0.1996,-0.2006,-0.2015,-0.2016,-0.2021,-0.2029,-0.203,-0.2024,-0.2035,-0.2037,-0.2051,-0.2057,-0.2046,-0.2047,-0.209,-0.2091,-0.2092,-0.2093,0,0,0,0,0,0,-0.1966,-0.1972,-0.1975,-0.1992,-0.1997,-0.2023,-0.2016,-0.2017,-0.2026,-0.2025,-0.2033,-0.2034,-0.2035,-0.2049,-0.2052,-0.2058,-0.2048,-0.2089,-0.209,-0.2091,-0.2092,-0.2094,-0.2095,0,0,0,0,0,-0.1964,-0.1973,-0.1976,-0.198,-0.2003,-0.2024,-0.2026,-0.203,-0.2026,-0.2032,-0.2035,-0.2034,-0.2058,-0.205,-0.2054,-0.2061,-0.2089,-0.209,-0.2091,-0.2091,-0.2093,-0.2095,0,0,0,0,0,0,-0.1951,-0.1974,-0.1977,-0.1992,-0.2008,-0.2023,-0.2028,-0.2033,-0.2041,-0.2039,-0.2041,-0.2043,-0.2059,-0.2062,-0.2054,-0.2078,-0.2073,-0.2075,-0.2072,-0.2074,-0.2075,-0.208,-0.2048,0,0,0,0,0,-0.1951,-0.1962,-0.1984,-0.1995,-0.2004,-0.2017,-0.2024,-0.203,-0.2041,-0.2043,-0.2048,-0.2056,-0.2067,-0.2071,-0.2082,-0.2096,-0.2101,-0.2103,-0.2104,-0.2105,-0.2112,-0.212,-0.2122,-0.2096,-0.2096,-0.2096,0,0,-0.1948,-0.1962,-0.1967,-0.1992,-0.2003,-0.2021,-0.202,-0.2035,-0.2048,-0.2045,-0.2059,-0.2063,-0.2073,-0.2086,-0.2093,-0.2089,-0.2117,-0.2107,-0.2108,-0.2114,-0.2121,-0.2124,-0.2126,-0.2097,-0.2097,-0.2097,0,0,-0.1949,-0.1961,-0.1972,-0.1989,-0.2011,-0.2022,-0.2029,-0.2048,-0.2053,-0.207,-0.2071,-0.2079,-0.2095,-0.2102,-0.2108,-0.2126,-0.2126,-0.2128,-0.2137,-0.2144,-0.2146,-0.2148,-0.216,-0.2162,-0.2126,-0.2126,-0.2126,0,-0.1943,-0.1961,-0.1977,-0.1996,-0.201,-0.2025,-0.2042,-0.2055,-0.2074,-0.2083,-0.2076,-0.2101,-0.2104,-0.2125,-0.2126,-0.2129,-0.2134,-0.2127,-0.2145,-0.2147,-0.2148,-0.216,-0.2164,-0.2126,-0.2126,-0.2126,-0.2126,0,-0.1955,-0.1971,-0.198,-0.2008,-0.2026,-0.2043,-0.2068,-0.2083,-0.2089,-0.2101,-0.2121,-0.2124,-0.2138,-0.2139,-0.2137,-0.2154,-0.2154,-0.2146,-0.2138,-0.2151,-0.2163,-0.2166,-0.2127,-0.2127,-0.2126,-0.2126,0,0,-0.1936,-0.1979,-0.1981,-0.1996,-0.2034,-0.2049,-0.2078,-0.2106,-0.2124,-0.2135,-0.2155,-0.2166,-0.2164,-0.2171,-0.2169,-0.2172,-0.2184,-0.2162,-0.2163,-0.217,-0.2203,-0.2238,-0.2245,-0.2175,-0.2175,-0.2176,-0.2206,0,-0.1937,-0.1968,-0.1993,-0.2021,-0.2039,-0.2069,-0.2095,-0.2124,-0.2144,-0.2166,-0.2174,-0.219,-0.2178,-0.2181,-0.2183,-0.2187,-0.2192,-0.2177,-0.2193,-0.2194,-0.222,-0.225,-0.2033,-0.2046,-0.2209,-0.221,-0.221,0,-0.1938,-0.1959,-0.1985,-0.2029,-0.204,-0.206,-0.2104,-0.213,-0.2171,-0.2187,-0.2206,-0.2216,-0.223,-0.2211,-0.2227,-0.2216,-0.2212,-0.221,-0.2211,-0.2248,-0.2236,-0.2059,-0.2045,-0.2216,-0.2215,-0.2215,-0.2215,0,-0.1909,-0.1953,-0.197,-0.1985,-0.2038,-0.2054,-0.2081,-0.2129,-0.2155,-0.2196,-0.222,-0.2239,-0.2254,-0.225,-0.2257,-0.2238,-0.2276,-0.2248,-0.2278,-0.2281,-0.2103,-0.209,-0.2259,-0.2259,-0.2259,-0.2259,-0.2258,0,-0.1898,-0.1911,-0.1955,-0.1964,-0.1986,-0.2033,-0.2062,-0.2096,-0.2151,-0.219,-0.2221,-0.226,-0.2263,-0.229,-0.2276,-0.2303,-0.2293,-0.2295,-0.2297,-0.2101,-0.2087,-0.2239,-0.2236,-0.226,-0.2259,-0.2259,-0.2259,0,-0.1857,-0.189,-0.1908,-0.1957,-0.197,-0.1982,-0.2041,-0.2067,-0.2129,-0.2183,-0.2198,-0.2274,-0.2323,-0.2337,-0.2348,-0.2341,-0.235,-0.2358,-0.2142,-0.2119,-0.2341,-0.2338,-0.2391,-0.2393,-0.2394,-0.2396,-0.2397,0,-0.1838,-0.1842,-0.1883,-0.1889,-0.1906,-0.1935,-0.1958,-0.2033,-0.2072,-0.2197,-0.2222,-0.2306,-0.237,-0.2423,-0.2383,-0.2382,-0.2408,-0.2211,-0.2146,-0.2362,-0.2358,-0.2352,-0.2348,-0.1897,-0.1894,-0.1891,-0.1889,0,-0.1787,-0.18,-0.1812,-0.1828,-0.1847,-0.1874,-0.192,-0.1956,-0.2062,-0.214,-0.2259,-0.233,-0.2385,-0.2314,-0.2325,-0.2277,-0.2195,-0.2165,-0.2418,-0.1928,-0.1907,-0.19,-0.1908,-0.1865,-0.1868,-0.187,-0.1871,-0.1872,-0.1735,-0.1728,-0.1742,-0.1751,-0.1776,-0.1806,-0.1813,-0.1893,-0.1972,-0.2075,-0.2207,-0.2271,-0.224,-0.2193,-0.2092,-0.1996,-0.2146,-0.2029,-0.2031,-0.2037,-0.2006,-0.1991,-0.1959,-0.1962,-0.1964,-0.1966,-0.1968,0,-0.1652,-0.1661,-0.1665,-0.1677,-0.1668,-0.1716,-0.1777,-0.1763,-0.1836,-0.198,-0.208,-0.1942,-0.1928,-0.1903,-0.1732,-0.1715,-0.1608,-0.1633,-0.1474,-0.15,-0.1523,-0.1459,-0.127,-0.1268,-0.1266,-0.1264,0,0,-0.161,-0.1578,-0.1583,-0.1549,-0.1566,-0.1532,-0.1551,-0.1567,-0.1629,-0.1678,-0.1748,-0.1926,-0.1941,-0.1647,-0.1533,-0.1396,-0.1431,-0.1319,-0.188,-0.1724,-0.1744,-0.1755,-0.1691,0,0,0,0,0]},{"header":{"parameterUnit":"m.s-1","parameterCategory":2,"la1":30.2991,"la2":30.254,"lo1":-89.0895,"lo2":-89.0444,"dy":0.0017,"dx":0.0017,"nx":28,"ny":28,"refTime":"2025-02-12T09:00:00:Z","depth":"2","parameterNumber":3,"parameterNumberName":"V-component_of_CURRENTS"},"data":[0,0,0,0,0,0,0,0,0,0,0,0,0,0,0,0,0,0,0,0,0,0,0,0,0,0,0,0,0,0,0,0,0,0,0,0,0,0,0,0,0,0,0,0,0,0,0,0,0,0,0,0,0,0,0,0,0,0,-0.0349,-0.0348,0,-0.0273,-0.0272,-0.0271,-0.0217,-0.0217,-0.0217,-0.0217,-0.0083,-0.008,-0.0076,0,0,0,0,0,0,0,0,0,0,0,0,0,-0.0396,-0.0396,-0.0349,-0.0348,-0.0347,-0.0273,-0.0272,-0.0271,-0.0217,-0.0217,-0.0217,-0.0217,-0.0084,-0.008,-0.0076,0,0,0,0,0,0,0,0,0,0,0,0,0,-0.0352,-0.0396,-0.0349,-0.0313,-0.031,-0.0273,-0.0272,-0.027,-0.0217,-0.0217,-0.0217,-0.0216,-0.0085,-0.008,-0.0075,-0.0052,0,0,-0.006,-0.0058,0,0,0,0,0,0,0,0,-0.0354,-0.035,-0.0319,-0.0316,-0.0311,-0.0256,-0.0239,-0.0195,-0.0218,-0.025,-0.0217,-0.0216,-0.0137,-0.0128,-0.0112,-0.0045,-0.004,-0.006,-0.0057,-0.0054,-0.0053,0,0,0,0,0,0,0,-0.0358,-0.0352,-0.0317,-0.0319,-0.0314,-0.0284,-0.0277,-0.0231,-0.0194,-0.0247,-0.0244,-0.0239,-0.0134,-0.0117,-0.0108,-0.0038,-0.006,-0.0055,-0.0052,-0.005,0.0052,0.0052,0,0,0,0,0,0,-0.0374,-0.0356,-0.0319,-0.0315,-0.0335,-0.0283,-0.0276,-0.0273,-0.0196,-0.0185,-0.0239,-0.0237,-0.0126,-0.0114,-0.0104,-0.0077,-0.0055,-0.005,-0.0047,0.0052,0.0052,0.0051,0,0,0,0,0,0,-0.0375,-0.0372,-0.0322,-0.0335,-0.0327,-0.0284,-0.028,-0.0271,-0.0255,-0.019,-0.0178,-0.0232,-0.0125,-0.0111,-0.0069,-0.0071,-0.0048,-0.0043,0.0052,0.0052,0.0052,-0.0019,0,0,0,0,0,0,-0.0377,-0.0373,-0.0375,-0.0336,-0.0327,-0.0306,-0.028,-0.027,-0.0253,-0.0249,-0.0179,-0.0167,-0.0124,-0.0077,-0.0064,-0.0064,-0.0039,0.0053,0.0052,0.0052,-0.0017,-0.0022,-0.0027,0,0,0,0,0,-0.0379,-0.0385,-0.0376,-0.0371,-0.0332,-0.0306,-0.0299,-0.0265,-0.0253,-0.0248,-0.0205,-0.0169,-0.0071,-0.0073,-0.0058,-0.0056,0.0053,0.0052,0.0052,-0.0014,-0.0021,-0.0027,0,0,0,0,0,0,-0.0404,-0.0379,-0.0368,-0.0365,-0.0341,-0.0298,-0.0291,-0.0271,-0.0233,-0.0228,-0.0169,-0.0153,-0.0118,-0.0079,-0.0082,-0.0029,-0.0004,-0.0002,-0.0059,-0.0065,-0.007,-0.0076,-0.0035,0,0,0,0,0,-0.0413,-0.0412,-0.0381,-0.0379,-0.037,-0.0333,-0.0319,-0.0298,-0.0261,-0.0244,-0.0198,-0.015,-0.0109,-0.0082,-0.0039,-0.0007,0.0029,0.0003,-0.0002,-0.0007,-0.0002,0.0039,0.0038,0.0049,0.0049,0.0049,0,0,-0.0423,-0.0409,-0.0408,-0.0385,-0.0363,-0.0354,-0.0323,-0.0307,-0.0296,-0.0235,-0.0206,-0.0166,-0.0106,-0.0073,-0.0054,-0.0039,0.0006,-0.0008,-0.0012,-0.0004,0.0038,0.0037,0.0036,0.0049,0.0049,0.0049,0,0,-0.0443,-0.043,-0.0436,-0.042,-0.0396,-0.0372,-0.0372,-0.0334,-0.0314,-0.0284,-0.0241,-0.0204,-0.0139,-0.0099,-0.0069,-0.0075,-0.0025,-0.0065,-0.0088,-0.005,-0.005,-0.005,-0.0019,-0.0015,-0.0064,-0.0064,-0.0064,0,-0.0457,-0.0459,-0.0433,-0.0434,-0.0425,-0.0386,-0.0389,-0.0362,-0.0315,-0.0299,-0.0285,-0.0196,-0.015,-0.0105,-0.0109,-0.0086,-0.0059,-0.0072,-0.0057,-0.0056,-0.0055,-0.0022,-0.0017,-0.0068,-0.0067,-0.0067,-0.0066,0,-0.0479,-0.0481,-0.0483,-0.0473,-0.0459,-0.0455,-0.042,-0.0403,-0.0377,-0.0346,-0.0302,-0.0242,-0.0188,-0.0172,-0.014,-0.0109,-0.0092,-0.0073,-0.0044,-0.0061,-0.0025,-0.0019,-0.0073,-0.0071,-0.007,-0.0069,0,0,-0.051,-0.0503,-0.0503,-0.0509,-0.0481,-0.0474,-0.0458,-0.0431,-0.0421,-0.0372,-0.035,-0.0283,-0.025,-0.0214,-0.0169,-0.0134,-0.0109,-0.0105,-0.0101,-0.0078,-0.0029,0.0002,0.0012,-0.009,-0.0089,-0.0089,-0.0012,0,-0.0537,-0.0556,-0.0538,-0.0552,-0.0559,-0.0522,-0.0512,-0.048,-0.0444,-0.0413,-0.0346,-0.0307,-0.0265,-0.0243,-0.0201,-0.0127,-0.0094,-0.0131,-0.0011,-0.0007,0.0018,0.002,0.0008,0.0078,-0.0005,-0.0004,-0.0003,0,-0.0565,-0.0575,-0.0597,-0.0598,-0.0597,-0.0595,-0.0574,-0.0558,-0.0501,-0.0473,-0.0417,-0.0362,-0.0293,-0.0264,-0.0144,-0.0171,-0.0107,-0.0053,-0.0048,0.0014,0.0036,0.0084,0.0093,0.0008,0.0007,0.0006,0.0005,0,-0.0607,-0.0616,-0.0639,-0.0638,-0.0629,-0.063,-0.062,-0.0577,-0.0568,-0.0506,-0.049,-0.0397,-0.0351,-0.0256,-0.0138,-0.0142,-0.001,0.0001,0.0089,0.0092,0.0124,0.0128,0.0078,0.0078,0.0078,0.0078,0.0077,0,-0.0644,-0.0661,-0.0662,-0.0675,-0.0701,-0.0674,-0.0685,-0.066,-0.0623,-0.0619,-0.0525,-0.0494,-0.0348,-0.0253,-0.015,-0.0006,-0.0015,0.0092,0.0118,0.0098,0.0099,0.0075,0.0074,0.0081,0.008,0.0079,0.0079,0,-0.0685,-0.0684,-0.0714,-0.0719,-0.0723,-0.0741,-0.074,-0.0747,-0.0701,-0.0692,-0.0675,-0.0561,-0.0433,-0.0283,-0.0121,-0.0021,0.0111,0.0159,0.0125,0.0146,0.0188,0.0182,0.027,0.0271,0.0273,0.0274,0.0275,0,-0.0707,-0.0726,-0.0754,-0.078,-0.0785,-0.0805,-0.0823,-0.0793,-0.0801,-0.0736,-0.0739,-0.0608,-0.0529,-0.0264,-0.0051,0.0149,0.0144,0.0253,0.0252,0.0194,0.021,0.0202,0.0194,0.0261,0.0262,0.0263,0.0263,0,-0.0748,-0.0757,-0.0781,-0.084,-0.0871,-0.0908,-0.0929,-0.095,-0.0918,-0.0908,-0.0865,-0.0793,-0.051,-0.0273,0.0015,0.0134,0.0225,0.0275,0.0234,0.0213,0.0192,0.0206,0.0197,0.027,0.0269,0.0269,0.0268,0.0268,-0.0773,-0.0805,-0.0843,-0.0898,-0.0946,-0.1011,-0.106,-0.1071,-0.1099,-0.1084,-0.0974,-0.0857,-0.0561,-0.0172,0.007,0.0304,0.0287,0.0347,0.0342,0.0337,0.0321,0.0304,0.0399,0.0399,0.0399,0.0399,0.0399,0,-0.0795,-0.0844,-0.0901,-0.0976,-0.1043,-0.1062,-0.1135,-0.1163,-0.1215,-0.1169,-0.1107,-0.0813,-0.0505,-0.0205,0.0174,0.0399,0.0387,0.0434,0.0382,0.0375,0.0368,0.0351,0.0439,0.044,0.0441,0.0441,0,0,-0.0809,-0.0865,-0.09,-0.1032,-0.1106,-0.1203,-0.1259,-0.1291,-0.1274,-0.1255,-0.1169,-0.0959,-0.0564,-0.0284,0.0034,0.0238,0.0233,0.0255,0.02,0.0093,0.0084,0.03,0.0264,0,0,0,0,0]}],[{"header":{"parameterUnit":"m.s-1","parameterCategory":2,"la1":30.2991,"la2":30.254,"lo1":-89.0895,"lo2":-89.0444,"dy":0.0017,"dx":0.0017,"nx":28,"ny":28,"refTime":"2025-02-12T09:00:00:Z","depth":"4","parameterNumber":2,"parameterNumberName":"U-component_of_CURRENTS"},"data":[0,0,0,0,0,0,0,0,0,0,0,0,0,0,0,0,0,0,0,0,0,0,0,0,0,0,0,0,0,0,0,0,0,0,0,0,0,0,0,0,0,0,0,0,0,0,0,0,0,0,0,0,0,0,0,0,0,0,-0.1275,-0.1275,0,-0.131,-0.1311,-0.1311,-0.134,-0.1341,-0.1341,-0.1342,-0.1402,-0.1403,-0.1404,0,0,0,0,0,0,0,0,0,0,0,0,0,-0.1215,-0.1216,-0.1275,-0.1275,-0.1276,-0.131,-0.1311,-0.1311,-0.134,-0.1341,-0.1341,-0.1342,-0.1402,-0.1403,-0.1405,0,0,0,0,0,0,0,0,0,0,0,0,0,-0.1244,-0.1217,-0.1274,-0.1296,-0.1298,-0.131,-0.1311,-0.1311,-0.134,-0.1341,-0.1342,-0.1342,-0.1401,-0.1403,-0.1405,-0.1403,0,0,-0.141,-0.1411,0,0,0,0,0,0,0,0,-0.1242,-0.1246,-0.1292,-0.1294,-0.1297,-0.1323,-0.1312,-0.1343,-0.134,-0.1323,-0.1342,-0.1343,-0.1378,-0.1382,-0.1385,-0.1405,-0.1408,-0.141,-0.1411,-0.1412,-0.1413,0,0,0,0,0,0,0,-0.124,-0.1244,-0.1287,-0.1292,-0.1295,-0.1298,-0.1302,-0.1318,-0.1346,-0.1324,-0.1327,-0.1333,-0.138,-0.1383,-0.1387,-0.1409,-0.141,-0.1412,-0.1413,-0.1414,-0.1497,-0.1498,0,0,0,0,0,0,-0.1239,-0.1243,-0.1286,-0.1289,-0.1272,-0.1298,-0.1304,-0.1313,-0.1345,-0.1351,-0.1332,-0.1334,-0.138,-0.1385,-0.1389,-0.1446,-0.1412,-0.1414,-0.1415,-0.1495,-0.1497,-0.1498,0,0,0,0,0,0,-0.1237,-0.1242,-0.1285,-0.1267,-0.1273,-0.1299,-0.1309,-0.1313,-0.1341,-0.1351,-0.1357,-0.1359,-0.138,-0.1386,-0.1423,-0.1446,-0.1415,-0.1416,-0.1494,-0.1496,-0.1497,-0.1523,0,0,0,0,0,0,-0.1236,-0.1242,-0.1258,-0.1267,-0.1274,-0.1308,-0.1308,-0.1313,-0.1343,-0.1347,-0.1376,-0.138,-0.1381,-0.1421,-0.1425,-0.1448,-0.1418,-0.1493,-0.1495,-0.1497,-0.1521,-0.1526,-0.153,0,0,0,0,0,-0.1233,-0.1249,-0.1258,-0.1264,-0.1292,-0.1309,-0.1313,-0.1332,-0.1344,-0.136,-0.1381,-0.1381,-0.1437,-0.1423,-0.1428,-0.1452,-0.1492,-0.1494,-0.1497,-0.1519,-0.1525,-0.1529,0,0,0,0,0,0,-0.1233,-0.1254,-0.1264,-0.1287,-0.1305,-0.1315,-0.1334,-0.1346,-0.1374,-0.1386,-0.1394,-0.14,-0.1441,-0.1445,-0.1429,-0.1483,-0.1465,-0.1469,-0.1481,-0.1486,-0.149,-0.1492,-0.1419,0,0,0,0,0,-0.1239,-0.1259,-0.1276,-0.1297,-0.1308,-0.1326,-0.134,-0.1354,-0.1374,-0.1389,-0.1409,-0.1432,-0.1451,-0.1468,-0.1485,-0.1514,-0.1512,-0.1534,-0.1539,-0.1542,-0.1548,-0.1559,-0.1564,-0.1506,-0.1506,-0.1506,0,0,-0.1245,-0.126,-0.1272,-0.1298,-0.1315,-0.1336,-0.1337,-0.1366,-0.139,-0.139,-0.1437,-0.145,-0.1463,-0.1495,-0.1514,-0.1504,-0.1559,-0.1545,-0.1548,-0.1552,-0.1562,-0.1567,-0.1572,-0.1508,-0.1508,-0.1507,0,0,-0.1256,-0.128,-0.1298,-0.1317,-0.1348,-0.1358,-0.1373,-0.14,-0.1421,-0.1459,-0.1466,-0.1493,-0.1528,-0.1537,-0.1546,-0.1586,-0.1581,-0.1597,-0.1622,-0.1632,-0.1636,-0.164,-0.1645,-0.1649,-0.1599,-0.1599,-0.1599,0,-0.1264,-0.1288,-0.1306,-0.1328,-0.1349,-0.1372,-0.1396,-0.1419,-0.1456,-0.1476,-0.1482,-0.1535,-0.1546,-0.1577,-0.1592,-0.1595,-0.1599,-0.1598,-0.1636,-0.164,-0.1644,-0.1647,-0.1651,-0.1601,-0.16,-0.16,-0.16,0,-0.128,-0.1311,-0.1325,-0.136,-0.1384,-0.1411,-0.1441,-0.1474,-0.1503,-0.1522,-0.157,-0.1583,-0.1612,-0.1621,-0.162,-0.1655,-0.1649,-0.1638,-0.1619,-0.1651,-0.1653,-0.1657,-0.1603,-0.1602,-0.1602,-0.1601,0,0,-0.1267,-0.1325,-0.1332,-0.1357,-0.1406,-0.1424,-0.1471,-0.1511,-0.1544,-0.1582,-0.1619,-0.1652,-0.1662,-0.1672,-0.1675,-0.1687,-0.1713,-0.1679,-0.1679,-0.1677,-0.1737,-0.1655,-0.1651,-0.171,-0.1711,-0.1712,-0.1727,0,-0.1275,-0.1318,-0.1349,-0.1397,-0.142,-0.1463,-0.1502,-0.1545,-0.1583,-0.1625,-0.1647,-0.1684,-0.168,-0.1697,-0.171,-0.1716,-0.1725,-0.171,-0.1712,-0.1712,-0.163,-0.1654,-0.1715,-0.173,-0.1731,-0.1731,-0.1732,0,-0.1274,-0.1306,-0.1352,-0.1415,-0.1431,-0.1467,-0.1533,-0.1571,-0.1631,-0.1661,-0.17,-0.172,-0.1754,-0.1739,-0.1766,-0.1759,-0.1754,-0.1751,-0.1752,-0.1669,-0.1638,-0.1693,-0.1739,-0.1738,-0.1738,-0.1737,-0.1737,0,-0.1238,-0.1306,-0.1344,-0.1367,-0.144,-0.1477,-0.1519,-0.1584,-0.1619,-0.1686,-0.1718,-0.1757,-0.1784,-0.1789,-0.1795,-0.1785,-0.1815,-0.1794,-0.1715,-0.1709,-0.1766,-0.1762,-0.1807,-0.1807,-0.1807,-0.1807,-0.1807,0,-0.1219,-0.1253,-0.1336,-0.1355,-0.1404,-0.1465,-0.1521,-0.1568,-0.1638,-0.1676,-0.1733,-0.1762,-0.18,-0.1821,-0.1811,-0.1777,-0.1827,-0.1723,-0.1708,-0.1777,-0.1774,-0.1768,-0.1764,-0.1807,-0.1807,-0.1807,-0.1807,0,-0.1166,-0.1224,-0.127,-0.1357,-0.1386,-0.142,-0.1512,-0.1545,-0.1626,-0.1678,-0.1702,-0.1777,-0.1807,-0.1832,-0.1844,-0.1791,-0.1769,-0.1743,-0.1824,-0.1814,-0.1652,-0.1649,-0.1647,-0.1645,-0.1642,-0.164,-0.1639,0,-0.114,-0.1159,-0.1254,-0.1281,-0.1324,-0.1387,-0.1425,-0.152,-0.1553,-0.1673,-0.1683,-0.1757,-0.1793,-0.1745,-0.1779,-0.1756,-0.1735,-0.1708,-0.1669,-0.165,-0.1636,-0.1637,-0.1637,-0.1635,-0.1634,-0.1634,-0.1633,0,-0.1082,-0.1126,-0.1163,-0.1216,-0.1265,-0.1312,-0.1377,-0.1394,-0.1502,-0.1594,-0.1628,-0.1646,-0.1683,-0.1688,-0.1687,-0.1666,-0.1715,-0.1683,-0.1687,-0.165,-0.1635,-0.1624,-0.1627,-0.1625,-0.1626,-0.1627,-0.1627,0,-0.1036,-0.1045,-0.1098,-0.1134,-0.1194,-0.1216,-0.1265,-0.1312,-0.1361,-0.1498,-0.1507,-0.1591,-0.1672,-0.1643,-0.164,-0.1619,-0.1589,-0.1524,-0.1536,-0.1545,-0.1504,-0.1469,-0.1397,0,0,0,0,0,-0.0981,-0.098,-0.101,-0.1047,-0.1104,-0.1135,-0.1221,-0.1275,-0.1386,-0.1376,-0.144,-0.1471,-0.1487,-0.1527,-0.1482,-0.1585,-0.1587,-0.1525,-0.1517,-0.158,-0.159,-0.155,0,0,0,0,0,0,-0.0944,-0.0966,-0.0975,-0.0965,-0.0975,-0.1024,-0.1074,-0.1152,-0.1154,-0.1276,-0.129,-0.1383,-0.1413,-0.1494,-0.1452,-0.1463,-0.1429,-0.1581,-0.1577,-0.1575,-0.1584,-0.1591,-0.1554,0,0,0,0,0]},{"header":{"parameterUnit":"m.s-1","parameterCategory":2,"la1":30.2991,"la2":30.254,"lo1":-89.0895,"lo2":-89.0444,"dy":0.0017,"dx":0.0017,"nx":28,"ny":28,"refTime":"2025-02-12T09:00:00:Z","depth":"4","parameterNumber":3,"parameterNumberName":"V-component_of_CURRENTS"},"data":[0,0,0,0,0,0,0,0,0,0,0,0,0,0,0,0,0,0,0,0,0,0,0,0,0,0,0,0,0,0,0,0,0,0,0,0,0,0,0,0,0,0,0,0,0,0,0,0,0,0,0,0,0,0,0,0,0,0,-0.0042,-0.0041,0,0.0012,0.0013,0.0013,0.0048,0.0048,0.0048,0.0048,0.0146,0.0148,0.0151,0,0,0,0,0,0,0,0,0,0,0,0,0,-0.0066,-0.0066,-0.0042,-0.0041,-0.0041,0.0012,0.0013,0.0013,0.0048,0.0048,0.0048,0.0048,0.0145,0.0148,0.0151,0,0,0,0,0,0,0,0,0,0,0,0,0,-0.0037,-0.0066,-0.0042,-0.0018,-0.0016,0.0012,0.0013,0.0014,0.0048,0.0048,0.0048,0.0048,0.0144,0.0148,0.0151,0.0173,0,0,0.0163,0.0165,0,0,0,0,0,0,0,0,-0.0039,-0.0036,-0.0022,-0.002,-0.0017,0.0022,0.004,0.0069,0.0048,0.0025,0.0048,0.0048,0.0107,0.0114,0.0126,0.0177,0.0182,0.0163,0.0166,0.0167,0.0168,0,0,0,0,0,0,0,-0.0041,-0.0038,-0.0019,-0.0022,-0.0019,0.0006,0.001,0.0045,0.0067,0.0027,0.003,0.0033,0.0109,0.0122,0.0128,0.0183,0.0163,0.0167,0.0169,0.0171,0.0248,0.0247,0,0,0,0,0,0,-0.0053,-0.004,-0.002,-0.0017,-0.003,0.0006,0.001,0.0011,0.0066,0.0074,0.0033,0.0034,0.0115,0.0124,0.0132,0.0147,0.0167,0.0171,0.0173,0.0248,0.0248,0.0247,0,0,0,0,0,0,-0.0054,-0.0052,-0.0023,-0.0028,-0.0023,0.0005,0.0006,0.0012,0.0021,0.0069,0.0078,0.0036,0.0116,0.0127,0.0156,0.0152,0.0173,0.0176,0.0248,0.0248,0.0247,0.0187,0,0,0,0,0,0,-0.0055,-0.0053,-0.0058,-0.003,-0.0023,-0.0013,0.0006,0.0013,0.0022,0.0025,0.0075,0.0084,0.0117,0.015,0.016,0.0158,0.0179,0.0248,0.0248,0.0248,0.0189,0.0185,0.0181,0,0,0,0,0,-0.0056,-0.0064,-0.0058,-0.0056,-0.0031,-0.0014,-0.0008,0.0014,0.0022,0.0024,0.0055,0.0083,0.0154,0.0153,0.0165,0.0163,0.0249,0.0248,0.0248,0.0191,0.0186,0.0181,0,0,0,0,0,0,-0.0075,-0.006,-0.0053,-0.0056,-0.004,-0.0008,-0.0006,0.0009,0.0035,0.0037,0.0083,0.0094,0.0118,0.0149,0.0146,0.0184,0.0205,0.0207,0.0159,0.0154,0.015,0.0143,0.0182,0,0,0,0,0,-0.0083,-0.0086,-0.0065,-0.0067,-0.0062,-0.0035,-0.0026,-0.0012,0.0014,0.0025,0.0059,0.0095,0.0126,0.0145,0.0177,0.02,0.0229,0.0206,0.0202,0.0198,0.02,0.0236,0.0235,0.0246,0.0246,0.0246,0,0,-0.0091,-0.0084,-0.0085,-0.0072,-0.0058,-0.0054,-0.0029,-0.0021,-0.0016,0.0033,0.0049,0.0081,0.0128,0.015,0.0164,0.0176,0.0207,0.0197,0.0194,0.0198,0.0235,0.0234,0.0233,0.0245,0.0245,0.0245,0,0,-0.0109,-0.0103,-0.0111,-0.0102,-0.0087,-0.0071,-0.0072,-0.0046,-0.0033,-0.0014,0.002,0.0048,0.0095,0.0127,0.015,0.0143,0.0182,0.0151,0.0127,0.0161,0.0161,0.016,0.0182,0.0185,0.015,0.015,0.015,0,-0.012,-0.0127,-0.011,-0.0114,-0.0111,-0.0083,-0.0089,-0.007,-0.0038,-0.0029,-0.0017,0.0048,0.0086,0.0118,0.0114,0.0134,0.0155,0.0141,0.0155,0.0156,0.0157,0.0179,0.0182,0.0147,0.0147,0.0148,0.0148,0,-0.014,-0.0148,-0.0152,-0.0149,-0.0143,-0.0144,-0.0121,-0.0112,-0.0095,-0.0073,-0.0043,0.0006,0.0045,0.006,0.0087,0.0111,0.0122,0.0142,0.0165,0.0152,0.0176,0.0181,0.0143,0.0144,0.0145,0.0145,0,0,-0.016,-0.0166,-0.0168,-0.0178,-0.0163,-0.0162,-0.0156,-0.0141,-0.0139,-0.0103,-0.0093,-0.0039,-0.0013,0.0015,0.0053,0.0085,0.0105,0.0111,0.0114,0.0128,0.017,0.0164,0.0169,0.0125,0.0126,0.0127,0.0179,0,-0.0182,-0.0205,-0.0198,-0.0219,-0.0228,-0.0207,-0.0206,-0.0188,-0.0165,-0.0147,-0.0094,-0.0068,-0.0029,-0.0014,0.0024,0.0088,0.0116,0.0088,0.0186,0.0189,0.0182,0.0174,0.0129,0.0183,0.0184,0.0185,0.0186,0,-0.0201,-0.0216,-0.0244,-0.0261,-0.0263,-0.027,-0.0267,-0.0261,-0.0225,-0.0207,-0.0168,-0.0124,-0.0069,-0.0039,0.0062,0.0041,0.0098,0.0147,0.0151,0.0173,0.0193,0.0205,0.0195,0.0194,0.0193,0.0193,0.0192,0,-0.0223,-0.0248,-0.0275,-0.0279,-0.029,-0.03,-0.0303,-0.028,-0.0281,-0.0243,-0.0236,-0.0163,-0.0129,-0.0044,0.0058,0.006,0.0167,0.0184,0.0233,0.0233,0.0249,0.0248,0.0251,0.0251,0.0251,0.0251,0.0251,0,-0.0245,-0.0267,-0.0292,-0.0306,-0.0343,-0.0335,-0.036,-0.0349,-0.0335,-0.034,-0.027,-0.0251,-0.0128,-0.0051,0.0043,0.0149,0.0157,0.0228,0.0248,0.022,0.0216,0.0251,0.025,0.0253,0.0253,0.0252,0.0252,0,-0.0259,-0.0275,-0.0311,-0.034,-0.0355,-0.0379,-0.0409,-0.0424,-0.0403,-0.0406,-0.0398,-0.0315,-0.0214,-0.0091,0.005,0.0122,0.023,0.0265,0.0216,0.0232,0.0275,0.0271,0.0321,0.0322,0.0322,0.0322,0.0322,0,-0.0266,-0.0286,-0.034,-0.0373,-0.0391,-0.0429,-0.0458,-0.0458,-0.0473,-0.0445,-0.0448,-0.0357,-0.0289,-0.0102,0.0037,0.0211,0.0238,0.0287,0.0292,0.0269,0.0284,0.0279,0.0274,0.0323,0.0323,0.0323,0.0323,0,-0.0279,-0.0301,-0.0332,-0.0403,-0.0448,-0.05,-0.0539,-0.0557,-0.0555,-0.0536,-0.0495,-0.039,-0.0275,-0.0115,0.002,0.0149,0.0253,0.029,0.0291,0.0296,0.0271,0.0284,0.028,0.0324,0.0324,0.0324,0.0324,0,-0.0287,-0.0316,-0.0365,-0.0424,-0.0491,-0.0555,-0.0575,-0.0593,-0.0604,-0.0571,-0.0555,-0.0422,-0.0339,-0.0147,-0.0019,0.0105,0.014,0.0175,0.0183,0.0183,0.0134,0.0081,0.0091,0,0,0,0,0,-0.0289,-0.0326,-0.0386,-0.046,-0.053,-0.0571,-0.0622,-0.0633,-0.0633,-0.0617,-0.0588,-0.048,-0.0285,-0.019,-0.0069,-0.0005,0.0166,0.0142,0.0211,0.0329,0.0328,0.0293,0,0,0,0,0,0,-0.0294,-0.0347,-0.0382,-0.0477,-0.0536,-0.0616,-0.0654,-0.0658,-0.0643,-0.0621,-0.0517,-0.0455,-0.0261,-0.0358,-0.0069,-0.0028,0.0032,0.024,0.0243,0.0329,0.0328,0.0327,0.0292,0,0,0,0,0]}]]